Location: Villingen
(48.0639°N, 8.4609°E)
Time: 14:30:15
(UTC+01:00)

ISS - Pass Details

Date: 13 January 2018
Orbit: 402 x 406 km, 51.6° (Epoch: 16 January)

Event Time Altitude Azimuth Distance (km) Brightness Sun altitude
Exits shadow 05:34:40 27° 111° (ESE) 817 -1.7 -25.7°
Drops below altitude 10° 05:36:18 10° 112° (ESE) 1,461 -0.1 -25.4°
Sets 05:38:23 0° 113° (ESE) 2,320 1.2 -25.1°
